When you browse on this site, cookies collect data to enhance your experience and personalize the content and advertising you see.
Visit our Privacy Policy to learn more. By continuing to use the site, you agree to this use of cookies and data.
  • în România
  • Lista ţărilor
  • Pe 7 zile
  • Temperatura apei
  • Meteo pe hartă
  • Widget-uri
  • user-avatar
    Intrare

    Meteo pe oră la Durham

    Astăzi, 2 Iunie, Marţi

    Timp Temperatura Precipitaţii Vânt Presiune Umiditate
    00:00 +11°C° 0 mm 1 m/s 763 mmHg 78%
    01:00 +11°C° 0 mm 1 m/s 762 mmHg 77%
    02:00 +11°C° 0 mm 1 m/s 762 mmHg 75%
    03:00 +10°C° 0 mm 1 m/s 762 mmHg 73%
    04:00 +11°C° 0 mm 1 m/s 761 mmHg 70%
    05:00 +12°C° 0 mm 0 m/s 761 mmHg 67%
    06:00 +13°C° 0 mm 0 m/s 761 mmHg 64%
    07:00 +14°C° 0 mm 0 m/s 761 mmHg 60%
    08:00 +16°C° 0 mm 0 m/s 760 mmHg 55%
    09:00 +19°C° 0 mm 1 m/s 760 mmHg 51%
    10:00 +20°C° 0 mm 1 m/s 760 mmHg 50%
    11:00 +21°C° 0 mm 1 m/s 759 mmHg 48%
    12:00 +23°C° 0 mm 1 m/s 759 mmHg 46%
    13:00 +21°C° 0.2 mm 2 m/s 758 mmHg 50%
    14:00 +21°C° 0.2 mm 2 m/s 758 mmHg 53%
    15:00 +21°C° 0.2 mm 2 m/s 757 mmHg 57%
    16:00 +20°C° 0.3 mm 2 m/s 757 mmHg 64%
    17:00 +19°C° 0.3 mm 2 m/s 757 mmHg 72%
    18:00 +17°C° 0.3 mm 2 m/s 756 mmHg 79%
    19:00 +16°C° 0.2 mm 1 m/s 756 mmHg 80%
    20:00 +16°C° 0.2 mm 1 m/s 755 mmHg 80%
    21:00 +15°C° 0.2 mm 1 m/s 755 mmHg 81%
    22:00 +14°C° 0.5 mm 1 m/s 755 mmHg 85%
    23:00 +14°C° 0.5 mm 2 m/s 755 mmHg 89%

    Mâine, 3 Iunie, Miercuri

    Timp Temperatura Precipitaţii Vânt Presiune Umiditate
    00:00 +12°C° 0.5 mm 3 m/s 754 mmHg 92%
    01:00 +12°C° 1.1 mm 3 m/s 754 mmHg 93%
    02:00 +11°C° 1.1 mm 4 m/s 754 mmHg 94%
    03:00 +11°C° 1.1 mm 4 m/s 753 mmHg 95%
    04:00 +9°C° 1.3 mm 5 m/s 753 mmHg 95%
    05:00 +9°C° 1.3 mm 6 m/s 753 mmHg 94%
    06:00 +9°C° 1.3 mm 7 m/s 753 mmHg 94%
    07:00 +9°C° 0.6 mm 7 m/s 753 mmHg 92%
    08:00 +9°C° 0.6 mm 7 m/s 753 mmHg 90%
    09:00 +9°C° 0.6 mm 8 m/s 753 mmHg 89%
    10:00 +10°C° 0.1 mm 7 m/s 753 mmHg 86%
    11:00 +10°C° 0.1 mm 7 m/s 753 mmHg 84%
    12:00 +11°C° 0.1 mm 7 m/s 753 mmHg 82%
    13:00 +11°C° 0.1 mm 7 m/s 753 mmHg 82%
    14:00 +11°C° 0.1 mm 7 m/s 753 mmHg 82%
    15:00 +11°C° 0.1 mm 7 m/s 753 mmHg 82%
    16:00 +11°C° 0.3 mm 7 m/s 752 mmHg 84%
    17:00 +10°C° 0.3 mm 7 m/s 752 mmHg 87%
    18:00 +10°C° 0.3 mm 8 m/s 752 mmHg 90%
    19:00 +9°C° 0.2 mm 8 m/s 752 mmHg 90%
    20:00 +9°C° 0.2 mm 7 m/s 752 mmHg 90%
    21:00 +9°C° 0.2 mm 7 m/s 752 mmHg 90%
    22:00 +8°C° 0 mm 6 m/s 752 mmHg 90%
    23:00 +7°C° 0 mm 5 m/s 752 mmHg 89%

    Poimâine, 4 Iunie, Joi

    Timp Temperatura Precipitaţii Vânt Presiune Umiditate
    00:00 +7°C° 0 mm 5 m/s 752 mmHg 89%
    01:00 +6°C° 0 mm 5 m/s 751 mmHg 89%
    02:00 +5°C° 0 mm 4 m/s 751 mmHg 89%
    03:00 +5°C° 0 mm 4 m/s 750 mmHg 89%
    04:00 +5°C° 0 mm 4 m/s 750 mmHg 87%
    05:00 +6°C° 0 mm 4 m/s 749 mmHg 85%
    06:00 +7°C° 0 mm 4 m/s 749 mmHg 83%
    07:00 +8°C° 0 mm 4 m/s 748 mmHg 78%
    08:00 +10°C° 0 mm 3 m/s 748 mmHg 72%
    09:00 +11°C° 0 mm 3 m/s 747 mmHg 67%
    10:00 +11°C° 0.1 mm 3 m/s 747 mmHg 67%
    11:00 +12°C° 0.1 mm 3 m/s 747 mmHg 67%
    12:00 +12°C° 0.1 mm 3 m/s 746 mmHg 67%
    13:00 +12°C° 0.3 mm 3 m/s 746 mmHg 70%
    14:00 +12°C° 0.3 mm 3 m/s 745 mmHg 72%
    15:00 +12°C° 0.3 mm 3 m/s 745 mmHg 75%
    16:00 +11°C° 0.5 mm 3 m/s 745 mmHg 79%
    17:00 +10°C° 0.5 mm 3 m/s 744 mmHg 83%
    18:00 +9°C° 0.5 mm 3 m/s 744 mmHg 87%
    19:00 +8°C° 0.4 mm 2 m/s 744 mmHg 87%
    20:00 +8°C° 0.4 mm 2 m/s 744 mmHg 87%
    21:00 +8°C° 0.4 mm 2 m/s 744 mmHg 86%
    22:00 +7°C° 0 mm 2 m/s 744 mmHg 87%
    23:00 +7°C° 0 mm 3 m/s 744 mmHg 88%

    5 Iunie, Vineri

    Timp Temperatura Precipitaţii Vânt Presiune Umiditate
    00:00 +5°C° 0 mm 3 m/s 743 mmHg 88%
    01:00 +5°C° 0 mm 4 m/s 743 mmHg 88%
    02:00 +5°C° 0 mm 4 m/s 743 mmHg 87%
    03:00 +5°C° 0 mm 5 m/s 743 mmHg 87%
    04:00 +5°C° 0 mm 5 m/s 743 mmHg 85%
    05:00 +5°C° 0 mm 5 m/s 742 mmHg 83%
    06:00 +5°C° 0 mm 6 m/s 742 mmHg 81%
    07:00 +7°C° 0 mm 6 m/s 742 mmHg 74%
    08:00 +8°C° 0 mm 6 m/s 742 mmHg 66%
    09:00 +9°C° 0 mm 7 m/s 742 mmHg 59%
    10:00 +10°C° 0.2 mm 7 m/s 742 mmHg 60%
    11:00 +11°C° 0.2 mm 6 m/s 741 mmHg 61%
    12:00 +11°C° 0.2 mm 6 m/s 741 mmHg 62%
    13:00 +11°C° 0.6 mm 6 m/s 741 mmHg 64%
    14:00 +11°C° 0.6 mm 6 m/s 741 mmHg 66%
    15:00 +11°C° 0.6 mm 6 m/s 741 mmHg 69%
    16:00 +11°C° 0.5 mm 6 m/s 741 mmHg 71%
    17:00 +10°C° 0.5 mm 6 m/s 741 mmHg 74%
    18:00 +10°C° 0.5 mm 6 m/s 740 mmHg 76%
    19:00 +9°C° 0.2 mm 6 m/s 741 mmHg 77%
    20:00 +7°C° 0.2 mm 6 m/s 741 mmHg 79%
    21:00 +6°C° 0.2 mm 5 m/s 741 mmHg 81%
    22:00 +4°C° 0 mm 6 m/s 741 mmHg 81%
    23:00 +4°C° 0 mm 7 m/s 740 mmHg 81%

    6 Iunie, Sâmbătă

    Timp Temperatura Precipitaţii Vânt Presiune Umiditate
    00:00 +2°C° 0 mm 8 m/s 740 mmHg 81%
    01:00 +2°C° 0 mm 8 m/s 740 mmHg 80%
    02:00 +2°C° 0 mm 9 m/s 740 mmHg 80%
    03:00 +2°C° 0 mm 9 m/s 740 mmHg 79%
    04:00 +3°C° 0.1 mm 9 m/s 740 mmHg 80%
    05:00 +3°C° 0.1 mm 10 m/s 739 mmHg 82%
    06:00 +5°C° 0.1 mm 10 m/s 739 mmHg 83%
    07:00 +5°C° 0.1 mm 10 m/s 740 mmHg 83%
    08:00 +6°C° 0.1 mm 10 m/s 740 mmHg 83%
    09:00 +6°C° 0.1 mm 9 m/s 740 mmHg 83%
    10:00 +7°C° 0 mm 10 m/s 740 mmHg 79%
    11:00 +9°C° 0 mm 10 m/s 740 mmHg 75%
    12:00 +11°C° 0 mm 10 m/s 740 mmHg 72%
    13:00 +9°C° 0 mm 10 m/s 740 mmHg 73%
    14:00 +9°C° 0 mm 10 m/s 740 mmHg 74%
    15:00 +9°C° 0 mm 10 m/s 740 mmHg 76%
    16:00 +8°C° 0.2 mm 10 m/s 740 mmHg 79%
    17:00 +8°C° 0.2 mm 9 m/s 740 mmHg 83%
    18:00 +8°C° 0.2 mm 9 m/s 740 mmHg 87%
    19:00 +9°C° 0.3 mm 8 m/s 740 mmHg 88%
    20:00 +9°C° 0.3 mm 7 m/s 740 mmHg 89%
    21:00 +9°C° 0.3 mm 6 m/s 740 mmHg 91%
    22:00 +8°C° 0.1 mm 6 m/s 740 mmHg 91%
    23:00 +8°C° 0.1 mm 5 m/s 741 mmHg 92%

    7 Iunie, Duminică

    Timp Temperatura Precipitaţii Vânt Presiune Umiditate
    00:00 +7°C° 0.1 mm 4 m/s 741 mmHg 92%
    01:00 +7°C° 0 mm 4 m/s 741 mmHg 92%
    02:00 +7°C° 0 mm 4 m/s 741 mmHg 92%
    03:00 +7°C° 0 mm 4 m/s 741 mmHg 92%
    04:00 +7°C° 0 mm 4 m/s 741 mmHg 91%
    05:00 +8°C° 0 mm 5 m/s 741 mmHg 90%
    06:00 +9°C° 0 mm 5 m/s 741 mmHg 89%
    07:00 +10°C° 0.1 mm 5 m/s 741 mmHg 86%
    08:00 +12°C° 0.1 mm 5 m/s 741 mmHg 82%
    09:00 +12°C° 0.1 mm 5 m/s 741 mmHg 79%
    10:00 +11°C° 0.4 mm 6 m/s 741 mmHg 81%
    11:00 +11°C° 0.4 mm 6 m/s 741 mmHg 83%
    12:00 +11°C° 0.4 mm 6 m/s 741 mmHg 85%
    13:00 +10°C° 0.5 mm 6 m/s 741 mmHg 87%
    14:00 +10°C° 0.5 mm 6 m/s 741 mmHg 88%
    15:00 +10°C° 0.5 mm 6 m/s 742 mmHg 90%
    16:00 +10°C° 0.5 mm 5 m/s 742 mmHg 91%
    17:00 +10°C° 0.5 mm 4 m/s 742 mmHg 92%
    18:00 +10°C° 0.5 mm 3 m/s 742 mmHg 93%
    19:00 +10°C° 0.1 mm 4 m/s 743 mmHg 93%
    20:00 +8°C° 0.1 mm 4 m/s 743 mmHg 92%
    21:00 +8°C° 0.1 mm 4 m/s 744 mmHg 92%
    22:00 +8°C° 0 mm 4 m/s 744 mmHg 92%
    23:00 +7°C° 0 mm 4 m/s 745 mmHg 91%
    Arată mai mult